We konden geen weer-waarchuwingen ophalen. Ga rechtstreeks naar de Meteoalarm site : www.meteoalarm.eu en controleer daar .



Onweer radar Meer informatie blitzortung!


Regen radar Meer informatie rain snow radar


Bezoek onze andere website:

Template documentation
and downloads

And another site



15 daagse weersverwachting Bodø (NO)

  • Overzicht
  • Per uur
  • 15 dagen
  • Extra
  • Vergelijk
  • Kaarten
  • Dagkaart
  • Meer »
  • Info
  • Statistieken
  • Directe link
    Temp 6h Neerslag Wind  
 04:42     21:33    Daglengte: 16:51 Vandaag
14:00
10°
17.8 mm
4
20:00
11°
 
5
 04:46     21:29    Daglengte: 16:43 Morgen
02:00
11°
11.5 mm
5
08:00
11°
 
2
14:00
14°
 
5
20:00
17°
 
5
 04:49     21:25    Daglengte: 16:36 Vrijdag 19 Aug
02:00
16°
 
6
08:00
17°
 
5
14:00
18°
32.3 mm
2
20:00
17°
 
2
 04:53     21:21    Daglengte: 16:28 Zaterdag 20 Aug
02:00
15°
 
1
08:00
18°
 
2
Locatie info
Region: Nordland
Latitude: 67.2860°N
Longitude: 14.3998°E
22 masl
Postcode: 8006
Temp/Neerslag /Baro Onweer/Dauwpunt
    Temp Baro 1h Neerslag Dauwpunt Wind UV Bewolking  
 04:42     21:33    Daglengte: 16:51 Vandaag
13:00
10°
1012.3 hPa 17.8 mm
48%
7.7°
5
Windvlaag: -2.1 m/s
85%
14:00
10°
1012.9 hPa
82%
6.8°
4
Windvlaag: -1.8 m/s
86%
15:00
10°
1013.2 hPa
82%
6.3°
4
Windvlaag: -0.1 m/s
86%
16:00
10°
1013.4 hPa
82%
6.4°
4
Windvlaag: 2.4 m/s
86%
17:00
10°
1013.8 hPa
82%
6.9°
4
Windvlaag: 2.5 m/s
86%
18:00
11°
1014.1 hPa
82%
7.1°
5
Windvlaag: 2.2 m/s
86%
19:00
11°
1014.3 hPa
82%
7.0°
5
Windvlaag: 2.4 m/s
74%
20:00
11°
1014.5 hPa
77%
7.0°
5
Windvlaag: 2.8 m/s
80%
21:00
11°
1015.2 hPa 5.8 mm
82%
6.7°
5
Windvlaag: 2.6 m/s
64%
22:00
11°
1015.6 hPa 5.7 mm
82%
6.5°
5
Windvlaag: 2.4 m/s
30%
23:00
11°
1016.1 hPa
82%
6.4°
5
Windvlaag: 1.8 m/s
43%
 04:46     21:29    Daglengte: 16:43 Morgen
00:00
11°
1016.7 hPa
80%
6.4°
5
Windvlaag: 1.9 m/s
40%
01:00
11°
1017.1 hPa
82%
6.8°
5
Windvlaag: 2.3 m/s
40%
02:00
11°
1017.6 hPa
79%
6.9°
5
Windvlaag: 2.3 m/s
38%
03:00
11°
1018.0 hPa
81%
6.4°
5
Windvlaag: 2.5 m/s
58%
04:00
11°
1018.4 hPa
81%
5.9°
4
Windvlaag: 2.3 m/s
63%
05:00
11°
1018.7 hPa
77%
5.4°
4
Windvlaag: 1.8 m/s
15%
06:00
11°
1019.0 hPa
76%
5.2°
3
Windvlaag: 1.6 m/s
28%
07:00
11°
1019.5 hPa
26%
4.7°
2
Windvlaag: -0.6 m/s
18%
08:00
11°
1019.9 hPa
19%
4.5°
2
Windvlaag: -1.3 m/s
17%
09:00
11°
1020.1 hPa
48%
4.4°
2
Windvlaag: -1 m/s
35%
10:00
11°
1020.1 hPa
14%
4.6°
2
Windvlaag: -0.6 m/s
44%
11:00
12°
1019.9 hPa
14%
4.9°
3
Windvlaag: -1 m/s
40%
12:00
13°
1019.4 hPa
14%
5.5°
4
Windvlaag: -1.8 m/s
31%
13:00
13°
1018.7 hPa
14%
5.1°
4
Windvlaag: -2 m/s
33%
14:00
14°
1017.9 hPa
14%
5.6°
5
Windvlaag: -1.7 m/s
11%
15:00
15°
1016.9 hPa
14%
6.3°
5
Windvlaag: -1.1 m/s
4%
16:00
16°
1016.1 hPa
14%
6.4°
4
Windvlaag: -0.5 m/s
20%
17:00
17°
1015.3 hPa
14%
7.0°
5
Windvlaag: 4.1 m/s
27%
18:00
17°
1014.7 hPa
14%
8.2°
5
Windvlaag: 5.1 m/s
17%
19:00
17°
1014.1 hPa
14%
9.3°
5
Windvlaag: 5.8 m/s
12%
20:00
17°
1013.9 hPa
14%
9.5°
5
Windvlaag: 6.5 m/s
18%
21:00
17°
1014.1 hPa
17%
9.1°
6
Windvlaag: 8.1 m/s
51%
22:00
16°
1014.0 hPa
16%
8.1°
7
Windvlaag: 9.8 m/s
56%
23:00
16°
1013.8 hPa
16%
8.1°
6
Windvlaag: 10.1 m/s
85%
 04:49     21:25    Daglengte: 16:36 Vrijdag 19 Aug
00:00
16°
1013.8 hPa
17%
8.5°
6
Windvlaag: 9.3 m/s
75%
01:00
16°
1013.5 hPa
58%
9.1°
6
Windvlaag: 7.6 m/s
55%
02:00
16°
1013.2 hPa
74%
9.6°
6
Windvlaag: 6.6 m/s
43%
03:00
16°
1012.9 hPa
56%
10.1°
5
Windvlaag: 5.9 m/s
44%
04:00
16°
1012.6 hPa
14%
10.6°
5
Windvlaag: 5.9 m/s
57%
05:00
16°
1011.8 hPa
21%
10.6°
6
Windvlaag: 5.1 m/s
61%
06:00
16°
1011.8 hPa
21%
13.4°
6
Windvlaag: 4.7 m/s
70%
07:00
17°
1011.5 hPa
21%
12.9°
6
Windvlaag: 4.9 m/s
87%
08:00
17°
1011.3 hPa
25%
12.7°
5
Windvlaag: 5.7 m/s
98%
09:00
17°
1010.9 hPa
75%
13.5°
5
Windvlaag: 5 m/s
100%
10:00
17°
1010.6 hPa 10.6 mm
94%
13.3°
5
Windvlaag: 5 m/s
99%
11:00
17°
1010.5 hPa 11.0 mm
100%
13.6°
4
Windvlaag: 5.2 m/s
99%
12:00
18°
1010.2 hPa 10.8 mm
100%
13.3°
3
Windvlaag: 4.5 m/s
100%
13:00
18°
1010.1 hPa
35%
14.2°
3
Windvlaag: 4.1 m/s
99%
14:00
18°
1010.3 hPa
21%
13.9°
2
Windvlaag: 2.3 m/s
100%
15:00
18°
1010.1 hPa
22%
14.5°
2
Windvlaag: 1.7 m/s
100%
16:00
18°
1010.1 hPa
21%
14.8°
2
Windvlaag: 1.6 m/s
97%
17:00
18°
1010.0 hPa
21%
14.8°
2
Windvlaag: 1.9 m/s
95%
18:00
18°
1009.9 hPa
21%
14.8°
2
Windvlaag: 2 m/s
94%
19:00
17°
1009.6 hPa
21%
14.9°
2
Windvlaag: 0.9 m/s
85%
20:00
17°
1009.6 hPa
21%
15.1°
2
Windvlaag: 0.7 m/s
91%
21:00
17°
1010.0 hPa
21%
16.4°
2
Windvlaag: 1.3 m/s
89%
22:00
17°
1010.0 hPa
21%
16.5°
1
Windvlaag: 0.8 m/s
73%
23:00
17°
1010.0 hPa
21%
16.6°
2
Windvlaag: 1.1 m/s
87%
 04:53     21:21    Daglengte: 16:28 Zaterdag 20 Aug
00:00
15°
1010.1 hPa
24%
15.2°
1
Windvlaag: 2.4 m/s
94%
01:00
15°
1010.0 hPa
22%
14.6°
1
Windvlaag: 2.6 m/s
63%
02:00
15°
1009.9 hPa
21%
14.8°
1
Windvlaag: 1.3 m/s
68%
03:00
15°
1009.7 hPa
21%
14.9°
2
Windvlaag: 2.8 m/s
70%
04:00
15°
1009.8 hPa
21%
14.7°
2
Windvlaag: 4.8 m/s
18%
05:00
15°
1009.6 hPa
21%
14.6°
2
Windvlaag: 5.6 m/s
17%
06:00
16°
1009.4 hPa
21%
15.1°
2
Windvlaag: 4.7 m/s
15%
07:00
17°
1009.1 hPa
21%
15.8°
2
Windvlaag: 4 m/s
72%
08:00
18°
1008.9 hPa
21%
16.5°
2
Windvlaag: 3.4 m/s
55%
09:00
18°
1008.7 hPa
21%
17.2°
2
Windvlaag: 3.1 m/s
75%
10:00
19°
1008.2 hPa
30%
17.7°
3
Windvlaag: 4.8 m/s
100%
11:00
19°
1008.0 hPa 21.6 mm
100%
17.8°
3
Windvlaag: 6.7 m/s
100%
12:00
18°
1007.5 hPa 22.1 mm
100%
17.8°
3
Windvlaag: 7.2 m/s
100%
Temp/Neerslag /Baro Onweer/Dauwpunt
    Temp Baro Neerslag Dauwpunt Wind Bewolking  
 04:42     21:33    Daglengte: 16:51 Vandaag
14:00
10°
1012.9 hPa 17.8 mm 6.8°
4
86%
17:00
10°
1013.8 hPa   6.9°
4
86%
20:00
11°
1014.5 hPa   7.0°
5
80%
23:00
11°
1016.1 hPa 11.5 mm 6.4°
5
43%
 04:46     21:29    Daglengte: 16:43 Morgen
02:00
11°
1017.6 hPa   6.9°
5
38%
05:00
11°
1018.7 hPa   5.4°
4
15%
08:00
11°
1019.9 hPa   4.5°
2
17%
11:00
12°
1019.9 hPa   4.9°
3
40%
14:00
14°
1017.9 hPa   5.6°
5
11%
17:00
17°
1015.3 hPa   7.0°
5
27%
20:00
17°
1013.9 hPa   9.5°
5
18%
23:00
16°
1013.8 hPa   8.1°
6
85%
 04:49     21:25    Daglengte: 16:36 Vrijdag 19 Aug
02:00
16°
1013.2 hPa   9.6°
6
43%
05:00
16°
1011.8 hPa   10.6°
6
61%
08:00
17°
1011.3 hPa   12.7°
5
98%
11:00
17°
1010.5 hPa 21.5 mm 13.6°
4
99%
14:00
18°
1010.3 hPa 10.8 mm 13.9°
2
100%
17:00
18°
1010.0 hPa   14.8°
2
95%
20:00
17°
1009.6 hPa   15.1°
2
91%
23:00
17°
1010.0 hPa   16.6°
2
87%
 04:53     21:21    Daglengte: 16:28 Zaterdag 20 Aug
02:00
15°
1009.9 hPa   14.8°
1
68%
05:00
15°
1009.6 hPa   14.6°
2
17%
08:00
18°
1008.9 hPa   16.5°
2
55%
11:00
19°
1008.0 hPa 21.6 mm 17.8°
3
100%
14:00
16°
1007.4 hPa 67.0 mm 16.3°
2
100%
17:00
13°
1011.7 hPa 48.7 mm 12.9°
3
1%
20:00
13°
1011.0 hPa 48.7 mm 12.9°
1
1%
23:00
14°
1009.0 hPa 49.2 mm 13.1°
2
1%
 04:57     21:16    Daglengte: 16:19 Zondag 21 Aug
02:00
14°
1006.9 hPa 49.5 mm 13.1°
3
1%
05:00
14°
1004.3 hPa 49.5 mm 13.0°
3
1%
08:00
15°
1003.0 hPa 49.5 mm 13.2°
2
1%
11:00
16°
1001.7 hPa 49.5 mm 12.7°
2
1%
14:00
16°
1001.8 hPa 51.1 mm 12.2°
3
1%
17:00
13°
1004.3 hPa 52.2 mm 12.6°
6
1%
20:00
12°
1006.6 hPa 53.6 mm 10.6°
8
1%
23:00
12°
1007.8 hPa 55.3 mm 10.5°
1
1%
 05:00     21:12    Daglengte: 16:12 Maandag 22 Aug
02:00
12°
1007.7 hPa 55.4 mm 9.6°
2
1%
05:00
12°
1007.4 hPa 55.4 mm 9.0°
2
1%
08:00
12°
1006.6 hPa 55.4 mm 8.7°
3
1%
11:00
14°
1005.3 hPa 55.4 mm 9.3°
3
1%
14:00
13°
1005.3 hPa 55.8 mm 10.0°
4
1%
17:00
12°
1006.8 hPa 56.4 mm 10.1°
3
1%
20:00
11°
1008.1 hPa 61.8 mm 10.6°
3
1%
23:00
11°
1009.3 hPa 65.1 mm 9.9°
3
1%
 05:04     21:08    Daglengte: 16:04 Dinsdag 23 Aug
02:00
12°
1010.3 hPa 65.5 mm 9.0°
4
1%
05:00
12°
1011.2 hPa 65.9 mm 8.6°
5
1%
08:00
12°
1013.8 hPa 66.9 mm 9.2°
9
1%
11:00
11°
1016.6 hPa 70.6 mm 9.3°
10
1%
14:00
12°
1019.9 hPa 71.7 mm 7.9°
10
1%
17:00
12°
1022.6 hPa 72.4 mm 8.2°
9
1%
20:00
11°
1024.1 hPa 72.5 mm 8.4°
6
1%
23:00
11°
1025.0 hPa 72.5 mm 8.3°
1
1%
 05:08     21:04    Daglengte: 15:56 Woensdag 24 Aug
02:00
10°
1024.4 hPa 72.5 mm 6.4°
4
1%
05:00
11°
1023.1 hPa 72.5 mm 5.9°
5
1%
08:00
12°
1022.3 hPa 72.5 mm 6.8°
6
1%
11:00
15°
1021.6 hPa   7.7°
5
1%
14:00
16°
1021.3 hPa 145.1 mm 7.8°
3
1%
20:00
15°
1021.5 hPa 145.1 mm 8.6°
2
1%
 05:11     20:59    Daglengte: 15:48 Donderdag 25 Aug
02:00
15°
1020.6 hPa 145.1 mm 9.1°
6
1%
08:00
14°
1019.8 hPa 145.1 mm 9.2°
6
1%
14:00
18°
1019.9 hPa 145.1 mm 6.7°
4
1%
20:00
15°
1021.5 hPa 145.1 mm 9.4°
2
1%
 05:15     20:55    Daglengte: 15:40 Vrijdag 26 Aug
02:00
15°
1019.7 hPa 145.1 mm 10.6°
4
1%
08:00
14°
1022.6 hPa 145.1 mm 11.3°
3
1%
14:00
14°
1026.4 hPa 145.3 mm 11.8°
0
1%
20:00
14°
1026.3 hPa 145.3 mm 12.4°
3
0%
 05:19     20:51    Daglengte: 15:32 Zaterdag 27 Aug
02:00
14°
1025.4 hPa 145.3 mm 11.5°
3
1%
08:00
13°
1021.7 hPa 0.7 mm 10.6°
2
73%
14:00
15°
1021.4 hPa 0.9 mm 10.7°
3
80%
20:00
13°
1021.7 hPa 0.8 mm 10.8°
3
73%
 05:22     20:47    Daglengte: 15:25 Zondag 28 Aug
02:00
12°
1022.4 hPa 0.8 mm 10.2°
3
75%
08:00
13°
1022.6 hPa 0.8 mm 9.9°
2
83%
14:00
14°
1022.8 hPa 0.6 mm 9.9°
2
74%
20:00
13°
1022.6 hPa 0.7 mm 10.1°
2
67%
 05:26     20:43    Daglengte: 15:17 Maandag 29 Aug
02:00
12°
1022.4 hPa 0.8 mm 9.5°
2
71%
08:00
13°
1021.7 hPa 0.5 mm 9.9°
2
75%
14:00
14°
1021.5 hPa 0.9 mm 10.0°
3
75%
20:00
13°
1021.2 hPa 0.9 mm 10.0°
2
77%
 05:29     20:38    Daglengte: 15:09 Dinsdag 30 Aug
02:00
12°
1021.1 hPa 1.0 mm 9.4°
2
72%
08:00
12°
1020.8 hPa 1.3 mm 9.3°
2
74%
14:00
13°
1020.2 hPa 1.1 mm 9.3°
3
79%
20:00
12°
1019.0 hPa 1.4 mm 9.6°
2
79%
 05:33     20:34    Daglengte: 15:01 Woensdag 31 Aug
02:00
11°
1018.2 hPa 0.9 mm 9.1°
2
78%
08:00
12°
1016.9 hPa 0.9 mm 9.2°
1
79%
14:00
14°
1016.2 hPa 0.7 mm 9.0°
2
71%
20:00
12°
1015.3 hPa 0.6 mm 9.2°
1
64%
 05:36     20:30    Daglengte: 14:54 Donderdag 01 Sep
02:00
11°
1014.6 hPa 0.7 mm 8.9°
2
68%
08:00
12°
1013.2 hPa 1.4 mm 9.4°
2
80%
  CAPE Lifted Index Hail Supercell Tornado SRH 3km CL BTM PRES CL TOP PRES Swiss DWD icon SMHI TS
 04:42     21:33    Daglengte: 16:51 Vandaag
13:00 18 J/kg 12.5 K 0 % 0 % 0 % 0 m²/s² 0 0 12.62 61
14:00 24 J/kg 13.3 K 0 % 0 % 0 % 0 m²/s² 0 0 13.42 61
15:00 45 J/kg 13.5 K 0 % 0 % 0 % 0 m²/s² 0 0 13.62 61
16:00 33 J/kg 13.6 K 0 % 0 % 0 % 0 m²/s² 0 0 13.78 61
17:00 40 J/kg 12.7 K 0 % 0 % 0 % 0 m²/s² 0 0 14.08 61
18:00 38 J/kg 12.6 K 0 % 0 % 0 % 0 m²/s² 0 0 15.99 61
19:00 31 J/kg 12.8 K 0 % 0 % 0 % 0 m²/s² 0 0 16.94 3
20:00 35 J/kg 12.1 K 0 % 0 % 0 % 0 m²/s² 0 0 17.29 3
21:00 28 J/kg 11.2 K 0 % 0 % 0 % 0 m²/s² 0 0 18.34 80
22:00 28 J/kg 10.6 K 0 % 0 % 0 % 0 m²/s² 0 0 17.68 80
23:00 28 J/kg 9.2 K 0 % 0 % 0 % 0 m²/s² 0 0 15.38 80
 04:46     21:29    Daglengte: 16:43 Morgen
00:00 24 J/kg 8.6 K 0 % 0 % 0 % 0 m²/s² 0 0 13.52 80
01:00 32 J/kg 7.5 K 0 % 0 % 0 % 0 m²/s² 0 0 12.18 80
02:00 34 J/kg 7.1 K 0 % 0 % 0 % 0 m²/s² 0 0 11 80
03:00 24 J/kg 7.6 K 0 % 0 % 0 % 0 m²/s² 0 0 11.71 2
04:00 22 J/kg 7.8 K 0 % 0 % 0 % 0 m²/s² 0 0 12.15 2
05:00 29 J/kg 9.3 K 0 % 0 % 0 % 0 m²/s² 0 0 14.01 2
06:00 32 J/kg 11.5 K 0 % 0 % 0 % 0 m²/s² 0 0 16.6 2
07:00 30 J/kg 12.9 K 0 % 0 % 0 % 0 m²/s² 0 0 18.93 2
08:00 18 J/kg 13.1 K 0 % 0 % 0 % 0 m²/s² 0 0 19.52 2
09:00 13 J/kg 13.5 K 0 % 0 % 0 % 0 m²/s² 0 0 20.4 3
10:00 13 J/kg 13.5 K 0 % 0 % 0 % 0 m²/s² 0 0 19.59 3
11:00 0 J/kg 13.2 K 0 % 0 % 0 % 0 m²/s² 0 0 18.96 3
12:00 0 J/kg 13.1 K 0 % 0 % 0 % 0 m²/s² 0 0 18.74 3
13:00 0 J/kg 12.6 K 0 % 0 % 0 % 0 m²/s² 0 0 18.6 3
14:00 0 J/kg 11.9 K 0 % 0 % 0 % 0 m²/s² 0 0 18.47 0
15:00 0 J/kg 11.1 K 0 % 0 % 0 % 0 m²/s² 0 0 18.12 1
16:00 0 J/kg 10.0 K 0 % 0 % 0 % 0 m²/s² 0 0 17.86 3
17:00 0 J/kg 9.4 K 0 % 0 % 0 % 0 m²/s² 0 0 17.92 3
18:00 0 J/kg 9.5 K 0 % 0 % 0 % 0 m²/s² 0 0 17.15 3
19:00 0 J/kg 9.8 K 0 % 0 % 0 % 0 m²/s² 0 0 16.7 3
20:00 0 J/kg 9.0 K 0 % 0 % 0 % 0 m²/s² 0 0 14.64 3
21:00 0 J/kg 7.4 K 0 % 0 % 0 % 0 m²/s² 0 0 12.23 3
22:00 0 J/kg 6.6 K 0 % 0 % 0 % 0 m²/s² 0 0 11.55 3
23:00 0 J/kg 6.2 K 0 % 0 % 0 % 0 m²/s² 0 0 11.03 3
 04:49     21:25    Daglengte: 16:36 Vrijdag 19 Aug
00:00 0 J/kg 6.2 K 0 % 0 % 0 % 0 m²/s² 0 0 11.81 3
01:00 0 J/kg 5.6 K 0 % 0 % 0 % 0 m²/s² 0 0 12.74 3
02:00 0 J/kg 5.2 K 0 % 0 % 0 % 0 m²/s² 0 0 8.74 80
03:00 0 J/kg 4.2 K 0 % 0 % 0 % 0 m²/s² 0 0 6.09 3
04:00 0 J/kg 3.8 K 0 % 0 % 0 % 0 m²/s² 0 0 4.85 3
05:00 0 J/kg 3.5 K 0 % 0 % 0 % 0 m²/s² 0 0 3.53 2
06:00 0 J/kg 3.1 K 0 % 0 % 0 % 0 m²/s² 0 0 3.13 2
07:00 0 J/kg 2.4 K 0 % 0 % 0 % 0 m²/s² 0 0 2.49 3
08:00 0 J/kg 1.4 K 0 % 0 % 0 % 0 m²/s² 0 0 1.43 3
09:00 0 J/kg 2.1 K 0 % 0 % 0 % 0 m²/s² 0 0 2.1 3
10:00 0 J/kg 1.9 K 0 % 0 % 0 % 0 m²/s² 0 0 2.02 3
11:00 0 J/kg 1.9 K 0 % 0 % 0 % 0 m²/s² 0 0 1.9 61
12:00 0 J/kg 2.1 K 0 % 0 % 0 % 0 m²/s² 0 0 2.28 61
13:00 1 J/kg 1.9 K 0 % 0 % 0 % 0 m²/s² 0 0 2.17 3
14:00 0 J/kg 1.4 K 0 % 0 % 0 % 0 m²/s² 0 0 2.15 3
15:00 0 J/kg 1.1 K 0 % 0 % 0 % 0 m²/s² 0 0 2.42 3
16:00 0 J/kg 0.7 K 0 % 0 % 0 % 0 m²/s² 0 0 2.86 3
17:00 0 J/kg 0.3 K 0 % 0 % 0 % 0 m²/s² 0 0 3.63 3
18:00 0 J/kg -0.4 K 0 % 0 % 0 % 0 m²/s² 0 0 3.2 3
19:00 0 J/kg -0.8 K 0 % 0 % 0 % 0 m²/s² 0 0 1.51 3
20:00 0 J/kg -0.6 K 0 % 0 % 0 % 0 m²/s² 0 0 0.06 3
21:00 18 J/kg 0.6 K 0 % 0 % 0 % 0 m²/s² 0 0 0.81 3
22:00 4 J/kg 1.9 K 0 % 0 % 0 % 0 m²/s² 0 0 1.9 2
23:00 0 J/kg 1.7 K 0 % 0 % 0 % 0 m²/s² 0 0 1.7 3
 04:53     21:21    Daglengte: 16:28 Zaterdag 20 Aug
00:00 0 J/kg 1.6 K 0 % 0 % 0 % 0 m²/s² 0 0 1.63 3
01:00 0 J/kg 1.9 K 0 % 0 % 0 % 0 m²/s² 0 0 1.9 2
02:00 0 J/kg 1.6 K 0 % 0 % 0 % 0 m²/s² 0 0 1.6 3
03:00 7 J/kg 1.7 K 0 % 0 % 0 % 0 m²/s² 0 0 2.36 3
04:00 0 J/kg 1.6 K 0 % 0 % 0 % 0 m²/s² 0 0 2.86 2
05:00 0 J/kg 1.5 K 0 % 0 % 0 % 0 m²/s² 0 0 2.97 2
06:00 0 J/kg 1.8 K 0 % 0 % 0 % 0 m²/s² 0 0 3.21 2
07:00 0 J/kg 1.6 K 0 % 0 % 0 % 0 m²/s² 0 0 3.01 3
08:00 0 J/kg 1.7 K 0 % 0 % 0 % 0 m²/s² 0 0 3.17 3
09:00 0 J/kg 1.3 K 0 % 0 % 0 % 0 m²/s² 0 0 2.56 3
10:00 0 J/kg 0.9 K 0 % 0 % 0 % 0 m²/s² 0 0 1.62 3
11:00 1 J/kg 0.9 K 0 % 0 % 0 % 0 m²/s² 0 0 1.56 61
12:00 1 J/kg 1.3 K 0 % 0 % 0 % 0 m²/s² 0 0 2.89 61
Temp Baro Wind Neerslag
  EWN Forecast EWN WRFDA DWD ICON FMI HIRLAM MET Norway GFS
 04:42     21:33    Daglengte: 16:51 Vandaag
14:00 10.1° 1012.9 hPa 4.1 m/s 17.8 mm 9.6° 1011.4 hPa 3.6 m/s 53.2 mm 10.1° 1013.4 hPa 4.2 m/s 5.3 mm 9.9° 1012.6 hPa 5.1 m/s 0.0 mm 9.2° 1013.4 hPa 3.5 m/s
17:00 10.4° 1013.8 hPa 4.0 m/s 0.0 mm 10.8° 1012.2 hPa 5.3 m/s 82.9 mm 10.3° 1013.9 hPa 4.0 m/s 2.2 mm 9.6° 1013.9 hPa 3.5 m/s 0.0 mm 10.0° 1014.6 hPa 4.5 m/s
20:00 10.8° 1014.5 hPa 5.3 m/s 0.0 mm 10.1° 1013.3 hPa 5.3 m/s 83.3 mm 10.9° 1014.6 hPa 5.2 m/s 0.8 mm 10.4° 1014.6 hPa 5.7 m/s 0.0 mm 10.5° 1015.5 hPa 5.6 m/s
23:00 10.6° 1016.1 hPa 5.0 m/s 11.5 mm 8.7° 1014.8 hPa 3.8 m/s 83.5 mm 10.3° 1016.1 hPa 4.6 m/s 1.0 mm 10.7° 1016.7 hPa 5.1 m/s 0.0 mm 10.5° 1016.6 hPa 6.4 m/s
 04:46     21:29    Daglengte: 16:43 Morgen
02:00 11.0° 1017.6 hPa 4.8 m/s 0.0 mm 9.3° 1016.2 hPa 3.4 m/s 83.7 mm 10.8° 1017.7 hPa 4.1 m/s 1.3 mm 11.1° 1018.0 hPa 5.2 m/s 0.0 mm 10.5° 1017.8 hPa 5.8 m/s
05:00 10.8° 1018.7 hPa 3.6 m/s 0.0 mm 9.1° 1017.0 hPa 2.7 m/s 84.2 mm 10.6° 1018.7 hPa 3.5 m/s 0.1 mm 10.9° 1019.7 hPa 4.5 m/s 0.0 mm 9.8° 1018.4 hPa 3.3 m/s
08:00 10.9° 1019.9 hPa 1.8 m/s 0.0 mm 10.4° 1018.6 hPa 2.6 m/s 84.8 mm 10.8° 1020.0 hPa 1.3 m/s 0.0 mm 10.8° 1020.6 hPa 1.9 m/s 0.0 mm 10.3° 1019.5 hPa 0.9 m/s
11:00 11.9° 1019.9 hPa 3.0 m/s 0.0 mm 11.7° 1019.3 hPa 0.9 m/s 84.9 mm 12.0° 1020.0 hPa 2.7 m/s 0.0 mm 11.6° 1020.7 hPa 3.1 m/s 0.0 mm 11.5° 1019.1 hPa 2.5 m/s
14:00 14.1° 1017.9 hPa 4.8 m/s 0.0 mm 14.3° 1017.0 hPa 3.8 m/s 84.9 mm 14.6° 1018.1 hPa 4.9 m/s 0.0 mm 14.0° 1018.6 hPa 4.7 m/s 0.0 mm 13.3° 1016.9 hPa 4.5 m/s
17:00 16.8° 1015.3 hPa 4.7 m/s 0.0 mm 17.6° 1014.4 hPa 3.5 m/s 84.9 mm 17.9° 1015.4 hPa 6.6 m/s 0.0 mm 15.9° 1016.3 hPa 1.6 m/s 0.0 mm 16.2° 1014.4 hPa 4.7 m/s
20:00 16.8° 1013.9 hPa 5.2 m/s 0.0 mm 16.6° 1013.3 hPa 3.5 m/s 84.9 mm 17.2° 1013.9 hPa 5.9 m/s 0.0 mm 14.8° 1015.0 hPa 2.1 m/s 0.0 mm 15.3° 1014.1 hPa 4.0 m/s
23:00 16.3° 1013.8 hPa 6.4 m/s 0.0 mm 15.8° 1013.2 hPa 6.7 m/s 84.9 mm 16.5° 1013.7 hPa 6.9 m/s 0.0 mm 15.0° 1015.3 hPa 3.2 m/s 0.0 mm 13.9° 1013.9 hPa 5.9 m/s
 04:49     21:25    Daglengte: 16:36 Vrijdag 19 Aug
02:00 16.1° 1013.2 hPa 5.6 m/s 0.0 mm 14.4° 1012.2 hPa 5.9 m/s 84.9 mm 16.4° 1013.1 hPa 6.3 m/s 0.2 mm 14.9° 1015.3 hPa 3.6 m/s 0.0 mm 13.9° 1012.9 hPa 6.2 m/s
05:00 16.2° 1011.8 hPa 6.0 m/s 0.0 mm 15.6° 1011.8 hPa 6.3 m/s 84.9 mm 16.2° 1012.1 hPa 4.5 m/s 0.0 mm 13.3° 1012.9 hPa 6.1 m/s
08:00 16.9° 1011.3 hPa 5.3 m/s 0.0 mm 15.7° 1011.4 hPa 4.8 m/s 89.3 mm 17.1° 1011.4 hPa 5.2 m/s 0.0 mm 13.8° 1012.9 hPa 4.9 m/s
11:00 16.7° 1010.5 hPa 3.9 m/s 21.5 mm 16.3° 1010.5 hPa 5.1 m/s 93.5 mm 16.5° 1010.7 hPa 3.8 m/s 0.8 mm 14.7° 1012.7 hPa 4.4 m/s
14:00 17.7° 1010.3 hPa 2.3 m/s 10.8 mm 17.8° 1010.3 hPa 1.2 m/s 96.2 mm 17.2° 1010.6 hPa 2.0 m/s 0.2 mm 14.4° 1012.4 hPa 4.0 m/s
17:00 18.1° 1010.0 hPa 2.0 m/s 0.0 mm 18.2° 1010.0 hPa 2.0 m/s 96.4 mm 17.0° 1010.3 hPa 1.1 m/s 0.0 mm 15.2° 1011.9 hPa 3.9 m/s
20:00 17.0° 1009.6 hPa 2.2 m/s 0.0 mm 16.7° 1008.2 hPa 3.0 m/s 96.4 mm 16.6° 1010.0 hPa 1.2 m/s 0.0 mm 15.4° 1011.5 hPa 3.3 m/s
23:00 16.6° 1010.0 hPa 1.9 m/s 0.0 mm 16.5° 1006.5 hPa 2.1 m/s 125.9 mm 15.4° 1010.8 hPa 0.3 m/s 0.0 mm 14.6° 1011.2 hPa 3.7 m/s
 04:53     21:21    Daglengte: 16:28 Zaterdag 20 Aug
02:00 14.8° 1009.9 hPa 1.3 m/s 0.0 mm 15.8° 1005.3 hPa 1.2 m/s 183.7 mm 14.6° 1011.0 hPa 1.3 m/s 0.0 mm 14.7° 1010.1 hPa 4.2 m/s
05:00 15.5° 1009.6 hPa 1.8 m/s 0.0 mm 15.2° 1006.0 hPa 2.6 m/s 192.8 mm 15.5° 1010.6 hPa 1.6 m/s 0.0 mm 14.8° 1008.2 hPa 4.7 m/s
08:00 17.7° 1008.9 hPa 2.2 m/s 0.0 mm 16.0° 1006.3 hPa 1.7 m/s 192.8 mm 18.1° 1009.5 hPa 2.3 m/s 0.0 mm 15.0° 1008.0 hPa 4.9 m/s
11:00 18.5° 1008.0 hPa 3.1 m/s 21.6 mm 15.9° 1008.3 hPa 4.3 m/s 192.8 mm 19.1° 1007.9 hPa 2.8 m/s 0.3 mm 14.5° 1009.7 hPa 1.8 m/s
14:00 16.3° 1007.4 hPa 2.0 m/s 67.0 mm 14.0° 1010.0 hPa 4.6 m/s 193.0 mm 16.8° 1006.8 hPa 1.3 m/s 4.0 mm 13.7° 1010.8 hPa 6.2 m/s
17:00 13.0° 1011.7 hPa 2.6 m/s 48.7 mm 13.0° 1011.7 hPa 2.6 m/s 48.7 mm
20:00 13.1° 1011.0 hPa 0.9 m/s 48.7 mm 13.1° 1011.0 hPa 0.9 m/s 48.7 mm
23:00 13.8° 1009.0 hPa 2.1 m/s 49.2 mm 13.8° 1009.0 hPa 2.1 m/s 49.2 mm
 04:57     21:16    Daglengte: 16:19 Zondag 21 Aug
02:00 13.8° 1006.9 hPa 2.7 m/s 49.5 mm 13.8° 1006.9 hPa 2.7 m/s 49.5 mm
05:00 13.8° 1004.3 hPa 2.8 m/s 49.5 mm 13.8° 1004.3 hPa 2.8 m/s 49.5 mm
08:00 15.0° 1003.0 hPa 1.8 m/s 49.5 mm 15.0° 1003.0 hPa 1.8 m/s 49.5 mm
11:00 16.4° 1001.7 hPa 2.2 m/s 49.5 mm 16.4° 1001.7 hPa 2.2 m/s 49.5 mm
14:00 16.4° 1001.8 hPa 2.8 m/s 51.1 mm 16.4° 1001.8 hPa 2.8 m/s 51.1 mm
17:00 12.9° 1004.3 hPa 5.6 m/s 52.2 mm 12.9° 1004.3 hPa 5.6 m/s 52.2 mm
20:00 12.4° 1006.6 hPa 8.2 m/s 53.6 mm 12.4° 1006.6 hPa 8.2 m/s 53.6 mm
23:00 11.9° 1007.8 hPa 0.6 m/s 55.3 mm 11.9° 1007.8 hPa 0.6 m/s 55.3 mm
 05:00     21:12    Daglengte: 16:12 Maandag 22 Aug
02:00 12.0° 1007.7 hPa 2.3 m/s 55.4 mm 12.0° 1007.7 hPa 2.3 m/s 55.4 mm
05:00 12.0° 1007.4 hPa 2.2 m/s 55.4 mm 12.0° 1007.4 hPa 2.2 m/s 55.4 mm
08:00 12.4° 1006.6 hPa 2.8 m/s 55.4 mm 12.4° 1006.6 hPa 2.8 m/s 55.4 mm
11:00 13.6° 1005.3 hPa 3.3 m/s 55.4 mm 13.6° 1005.3 hPa 3.3 m/s 55.4 mm
14:00 13.1° 1005.3 hPa 3.8 m/s 55.8 mm 13.1° 1005.3 hPa 3.8 m/s 55.8 mm
17:00 12.1° 1006.8 hPa 3.3 m/s 56.4 mm 12.1° 1006.8 hPa 3.3 m/s 56.4 mm
20:00 11.1° 1008.1 hPa 3.2 m/s 61.8 mm 11.1° 1008.1 hPa 3.2 m/s 61.8 mm
23:00 11.5° 1009.3 hPa 3.3 m/s 65.1 mm 11.5° 1009.3 hPa 3.3 m/s 65.1 mm
 05:04     21:08    Daglengte: 16:04 Dinsdag 23 Aug
02:00 11.8° 1010.3 hPa 4.2 m/s 65.5 mm 11.8° 1010.3 hPa 4.2 m/s 65.5 mm
05:00 11.9° 1011.2 hPa 5.2 m/s 65.9 mm 11.9° 1011.2 hPa 5.2 m/s 65.9 mm
08:00 11.6° 1013.8 hPa 8.7 m/s 66.9 mm 11.6° 1013.8 hPa 8.7 m/s 66.9 mm
11:00 10.9° 1016.6 hPa 10.2 m/s 70.6 mm 10.9° 1016.6 hPa 10.2 m/s 70.6 mm
14:00 11.8° 1019.9 hPa 10.1 m/s 71.7 mm 11.8° 1019.9 hPa 10.1 m/s 71.7 mm
17:00 11.6° 1022.6 hPa 8.9 m/s 72.4 mm 11.6° 1022.6 hPa 8.9 m/s 72.4 mm
20:00 11.2° 1024.1 hPa 5.7 m/s 72.5 mm 11.2° 1024.1 hPa 5.7 m/s 72.5 mm
23:00 11.1° 1025.0 hPa 1.4 m/s 72.5 mm 11.1° 1025.0 hPa 1.4 m/s 72.5 mm
 05:08     21:04    Daglengte: 15:56 Woensdag 24 Aug
02:00 10.4° 1024.4 hPa 4.2 m/s 72.5 mm 10.4° 1024.4 hPa 4.2 m/s 72.5 mm
05:00 10.5° 1023.1 hPa 5.1 m/s 72.5 mm 10.5° 1023.1 hPa 5.1 m/s 72.5 mm
08:00 11.8° 1022.3 hPa 5.7 m/s 72.5 mm 11.8° 1022.3 hPa 5.7 m/s 72.5 mm
11:00 14.6° 1021.6 hPa 4.8 m/s 72.5 mm 14.6° 1021.6 hPa 4.8 m/s 72.5 mm
14:00 16.3° 1021.3 hPa 2.5 m/s 72.5 mm 16.3° 1021.3 hPa 2.5 m/s 72.5 mm
20:00 14.8° 1021.5 hPa 2.3 m/s 72.5 mm 14.8° 1021.5 hPa 2.3 m/s 72.5 mm
 05:11     20:59    Daglengte: 15:48 Donderdag 25 Aug
02:00 14.8° 1020.6 hPa 6.0 m/s 72.5 mm 14.8° 1020.6 hPa 6.0 m/s 72.5 mm
08:00 14.1° 1019.8 hPa 5.7 m/s 72.5 mm 14.1° 1019.8 hPa 5.7 m/s 72.5 mm
14:00 17.8° 1019.9 hPa 3.9 m/s 72.5 mm 17.8° 1019.9 hPa 3.9 m/s 72.5 mm
20:00 14.5° 1021.5 hPa 2.2 m/s 72.5 mm 14.5° 1021.5 hPa 2.2 m/s 72.5 mm
 05:15     20:55    Daglengte: 15:40 Vrijdag 26 Aug
02:00 15.4° 1019.7 hPa 4.4 m/s 72.5 mm 15.4° 1019.7 hPa 4.4 m/s 72.5 mm
08:00 14.3° 1022.6 hPa 3.1 m/s 72.6 mm 14.3° 1022.6 hPa 3.1 m/s 72.6 mm
14:00 13.9° 1026.4 hPa 0.5 m/s 72.7 mm 13.9° 1026.4 hPa 0.5 m/s 72.7 mm
20:00 14.3° 1026.3 hPa 3.3 m/s 72.7 mm 14.3° 1026.3 hPa 3.3 m/s 72.7 mm
 05:19     20:51    Daglengte: 15:32 Zaterdag 27 Aug
02:00 14.2° 1025.4 hPa 3.2 m/s 72.7 mm 14.2° 1025.4 hPa 3.2 m/s 72.7 mm
08:00 13.4° 1021.7 hPa 2.3 m/s 0.7 mm
14:00 15.0° 1021.4 hPa 2.9 m/s 0.9 mm
20:00 13.5° 1021.7 hPa 2.9 m/s 0.8 mm
 05:22     20:47    Daglengte: 15:25 Zondag 28 Aug
02:00 12.3° 1022.4 hPa 2.6 m/s 0.8 mm
08:00 12.7° 1022.6 hPa 1.7 m/s 0.8 mm
14:00 14.2° 1022.8 hPa 2.0 m/s 0.6 mm
20:00 12.8° 1022.6 hPa 2.1 m/s 0.7 mm
 05:26     20:43    Daglengte: 15:17 Maandag 29 Aug
02:00 12.0° 1022.4 hPa 2.4 m/s 0.8 mm
08:00 12.7° 1021.7 hPa 2.3 m/s 0.5 mm
14:00 14.1° 1021.5 hPa 2.5 m/s 0.9 mm
20:00 12.7° 1021.2 hPa 2.0 m/s 0.9 mm
 05:29     20:38    Daglengte: 15:09 Dinsdag 30 Aug
02:00 11.5° 1021.1 hPa 2.3 m/s 1.0 mm
08:00 11.9° 1020.8 hPa 2.2 m/s 1.3 mm
14:00 13.2° 1020.2 hPa 2.6 m/s 1.1 mm
20:00 12.2° 1019.0 hPa 2.2 m/s 1.4 mm
 05:33     20:34    Daglengte: 15:01 Woensdag 31 Aug
02:00 11.4° 1018.2 hPa 2.2 m/s 0.9 mm
08:00 12.0° 1016.9 hPa 1.4 m/s 0.9 mm
14:00 13.7° 1016.2 hPa 1.6 m/s 0.7 mm
20:00 12.2° 1015.3 hPa 0.8 m/s 0.6 mm
 05:36     20:30    Daglengte: 14:54 Donderdag 01 Sep
02:00 11.3° 1014.6 hPa 1.8 m/s 0.7 mm
08:00 11.8° 1013.2 hPa 1.8 m/s 1.4 mm
FMI Hirlam - 7.5 km EWN WRFDA - 12 km DWD ICON - 7 km GFS - 25 km Basiskaart






























































Updatetijd (Europe/Amsterdam) Resolutie Lengte Stap
FMI Hirlam 07:15, 13:15, 19:15, 01:15 7.5 km 49h 1h
EWN WRFDA 10:15, 16:15, 22:15, 04:15 12 km 73h 1h
DWD ICON 11:45, 17:45, 23:45, 05:45 7 km 75h 1h
GFS 08:15, 14:15, 20:15, 02:15 25 km 237h 3h
30+ mm
25-30 mm
20-25 mm
15-20 mm
10-15 mm
6-10 mm
4-6 mm
2-4 mm
1-2 mm
0.5-1 mm
0.2-0.5 mm
0.1-0.2 mm
30+ mm
25-30 mm
20-25 mm
15-20 mm
10-15 mm
6-10 mm
4-6 mm
2-4 mm
1-2 mm
0.5-1 mm
0.2-0.5 mm
0.1-0.2 mm
Sneeuwval
Natte sneeuw
Hagel
Vorst
30+ mm
25-30 mm
20-25 mm
15-20 mm
10-15 mm
6-10 mm
4-6 mm
2-4 mm
1-2 mm
0.5-1 mm
0.2-0.5 mm
0.1-0.2 mm
Sneeuwval
Natte sneeuw
Hagel
Vorst
Onweer
50 mm
40 mm
30 mm
26 mm
22 mm
18 mm
14 mm
10 mm
9 mm
8 mm
7 mm
6 mm
5 mm
4.5 mm
4 mm
3.5 mm
3 mm
2.5 mm
2 mm
1.5 mm
1 mm
0.8 mm
0.6 mm
0.4 mm
0.2 mm
0.05 mm
35°
30°
25°
20°
15°
10°
-5°
-10°
-15°
-20°
-25°
-30°
-35°
33> m/s
29 m/s
25 m/s
21 m/s
17 m/s
14 m/s
11 m/s
8 m/s
5 m/s
3 m/s
0 m/s
2600 J/kg
2400 J/kg
2200 J/kg
2000 J/kg
1800 J/kg
1600 J/kg
1400 J/kg
1200 J/kg
1000 J/kg
800 J/kg
600 J/kg
400 J/kg
200 J/kg
70 dBZ
65 dBZ
60 dBZ
55 dBZ
50 dBZ
45 dBZ
40 dBZ
35 dBZ
30 dBZ
25 dBZ
20 dBZ
15 dBZ
10 dBZ
5 dBZ
-1 K
-2 K
-3 K
-4 K
-5 K
-6 K
-7 K
-8 K
-9 K
950 m²/s²
900 m²/s²
850 m²/s²
800 m²/s²
750 m²/s²
700 m²/s²
650 m²/s²
600 m²/s²
550 m²/s²
500 m²/s²
450 m²/s²
400 m²/s²
350 m²/s²
300 m²/s²
250 m²/s²
200 m²/s²
150 m²/s²
100 m²/s²
46 m/s
44 m/s
42 m/s
40 m/s
38 m/s
36 m/s
34 m/s
32 m/s
30 m/s
28 m/s
26 m/s
24 m/s
22 m/s
20 m/s
16 m/s
12 m/s
8 m/s
4 m/s
30 m/s
28 m/s
26 m/s
24 m/s
22 m/s
20 m/s
18 m/s
16 m/s
14 m/s
12 m/s
10 m/s
8 m/s
6 m/s
4 m/s
2 m/s
3.0
2.8
2.6
2.4
2.2
2.0
1.8
1.6
1.4
1.2
1.0
0.8
0.6
0.4
0.2
15
14
13
12
11
10
9
8
7
6
5
4
3
2
1
90%
80%
70%
60%
50%
40%
30%
20%
10%
42
40
38
36
34
32
30
28
26
24
22
20
18
16
14
12
90+ cm
80-90 cm
70-80 cm
60-70 cm
50-60 cm
40-50 cm
30-40 cm
20-30 cm
10-20 cm
1-10 cm
Sneeuwval
Natte sneeuw
Regen
>120 mm
115 mm
110 mm
105 mm
100 mm
95 mm
90 mm
85 mm
80 mm
75 mm
70 mm
65 mm
60 mm
55 mm
50 mm
45 mm
45 mm
40 mm
35 mm
30 mm
25 mm
20 mm
15 mm
10 mm
5 mm
0.1 mm
960 hPa
880 hPa
800 hPa
720 hPa
640 hPa
560 hPa
584 gpdm
568 gpdm
552 gpdm
536 gpdm
520 gpdm
504 gpdm
488 gpdm
Extreem zwaar Noodweer Kans op onweer
15% 15% 5% 50% 15%

Dag




Kaart






35°
30°
25°
20°
15°
10°
-5°